Flag for Italy Weather past 2 weeks in Naples, Italy

Now
81 °F

Fog.


Feels Like: 85 °F
Forecast: 72 / 90 °F
Wind: 3 mph from Southwest

Location: Naples / Capodichino

Current Time: Jul 8, 2015 at 8:56:21 AM

Latest Report: Jul 8, 2015 at 7:50 AM


Visibility: 3 mi

Pressure: 29.92 "Hg

Humidity: 79%

Dew point: 73 °F

Location of NaplesLocation

Historic Weather in Naples — Graph

°F

Naples temperature yesterday

Maximum temperature yesterday: 88 °F (at 11:50 AM)
Minimum temperature yesterday: 75 °F (at 6:20 AM)
Average temperature yesterday: 82 °F

Past Weeks' High & Low Weather Summary

 TemperatureHumidityPressure
High91 °F (Jul 3, 2:50 PM)94% (Jul 6, 2:20 AM)30.21 "Hg (Jul 6, 2:20 AM)
Low66 °F (Jun 24, 5:50 AM)23% (Jun 27, 1:50 PM)29.92 "Hg (Jun 23, 7:50 PM)
Average79 °F51%30.07 "Hg
* Reported Jun 23 7:20 AM — Jul 8 7:50 AM, Naples, Weather by CustomWeather, © 2015

Note: Actual official high and low records may vary slightly from our data, if they occured in-between our weather recording intervals... More about our weather records

Advertising

Naples weather history for previous 24 hours

 ConditionsComfort  
Time TempWeatherWind HumidityBarometerVisibility
7:50 AM
Wed, Jul 8
81 °FFog.3 mph79%29.92 "Hg3 mi
7:20 AM79 °FFog.2 mph84%29.92 "Hg3 mi
6:50 AM79 °FFog.1 mph79%29.92 "Hg3 mi
6:20 AM77 °FFog.No wind83%29.92 "Hg2 mi
5:50 AM77 °FFog.No wind83%29.92 "Hg2 mi
5:20 AM77 °FFog.2 mph83%29.92 "Hg2 mi
4:50 AM75 °FPassing clouds.2 mph89%29.92 "Hg5 mi
4:20 AM77 °FPassing clouds.No wind89%29.95 "Hg5 mi
3:50 AM79 °FPassing clouds.1 mph89%29.95 "Hg5 mi
3:20 AM79 °FPassing clouds.2 mph89%29.95 "Hg5 mi
2:50 AM77 °FClear.2 mph89%29.95 "Hg10 mi
2:20 AM77 °FClear.2 mph89%29.95 "Hg10 mi
1:50 AM79 °FClear.No wind84%29.95 "Hg10 mi
12:50 AM79 °FClear.2 mph79%29.95 "Hg10 mi
12:20 AM81 °FClear.2 mph74%29.95 "Hg10 mi
11:50 PM
Tue, Jul 7
81 °FClear.2 mph74%29.98 "Hg10 mi
11:20 PM81 °FClear.2 mph74%29.98 "Hg10 mi
10:50 PM81 °FClear.3 mph74%29.98 "Hg10 mi
10:20 PM81 °FClear.1 mph74%29.98 "Hg10 mi
9:50 PM81 °FClear.No wind74%29.98 "Hg10 mi
9:20 PM81 °FPassing clouds.3 mph74%29.95 "HgN/A
8:50 PM82 °FPassing clouds.3 mph70%29.95 "HgN/A
8:20 PM82 °FSunny.5 mph66%29.95 "Hg10 mi
7:50 PM84 °FPassing clouds.3 mph62%29.95 "HgN/A
7:20 PM84 °FPassing clouds.8 mph66%29.98 "HgN/A
6:50 PM86 °FPassing clouds.10 mph62%29.98 "HgN/A
6:20 PM88 °FPassing clouds.8 mph62%29.98 "HgN/A
5:50 PM88 °FPassing clouds.5 mph59%30.01 "HgN/A
5:20 PM84 °FPassing clouds.9 mph70%29.98 "HgN/A
4:50 PM86 °FClear.9 mph70%29.98 "Hg5 mi
4:20 PM84 °FClear.10 mph74%30.01 "Hg5 mi
3:50 PM86 °FClear.12 mph66%30.01 "Hg4 mi
3:20 PM86 °FClear.10 mph66%30.01 "Hg4 mi
2:50 PM86 °FPassing clouds.10 mph66%30.01 "HgN/A
2:20 PM86 °FPassing clouds.10 mph66%30.01 "Hg4 mi
1:50 PM86 °FPassing clouds.10 mph66%30.04 "Hg4 mi
1:20 PM86 °FPassing clouds.9 mph66%30.04 "Hg4 mi
12:50 PM86 °FPassing clouds.9 mph66%30.04 "Hg4 mi
12:20 PM88 °FPassing clouds.7 mph62%30.04 "Hg4 mi
11:50 AM88 °FScattered clouds.5 mph62%30.04 "Hg4 mi
11:20 AM84 °FPartly sunny.5 mph66%30.07 "Hg4 mi
10:50 AM84 °FPartly sunny.5 mph66%30.07 "Hg4 mi
10:20 AM82 °FPartly sunny.3 mph70%30.07 "Hg4 mi
9:50 AM82 °FPartly sunny.5 mph74%30.07 "Hg4 mi
9:20 AM81 °FFog.3 mph79%30.07 "Hg3 mi
8:50 AM79 °FFog.1 mph79%30.07 "Hg3 mi
8:20 AM81 °FFog.1 mph74%30.07 "Hg3 mi
Weather by CustomWeather, © 2015

See weather overviewHow to use our weather pages